When you browse on this site, cookies collect data to enhance your experience and personalize the content and advertising you see.
Visit our Privacy Policy to learn more. By continuing to use the site, you agree to this use of cookies and data.
  • en France
  • Liste des pays
  • À 7 jours
  • Température de l'eau
  • Carte satellitaire
  • Carte météo
  • Widgets météo
  • user-avatar
    Se connecter

    Météo par heure à Côte de l'Or

    Ce jour, 13 Décembre, Jeudi

    Heure Température Précipitation Vent Pression Humidité
    00:00 +22°C° 0 mm 3 m/s 755 mmHg 86%
    01:00 +22°C° 0 mm 4 m/s 754 mmHg 86%
    02:00 +22°C° 0 mm 3 m/s 754 mmHg 87%
    03:00 +21°C° 0 mm 3 m/s 754 mmHg 89%
    04:00 +21°C° 0 mm 3 m/s 753 mmHg 91%
    05:00 +22°C° 0 mm 3 m/s 753 mmHg 84%
    06:00 +24°C° 0 mm 3 m/s 753 mmHg 78%
    07:00 +25°C° 0 mm 3 m/s 754 mmHg 72%
    08:00 +27°C° 0 mm 4 m/s 753 mmHg 63%
    09:00 +29°C° 0 mm 4 m/s 753 mmHg 54%
    10:00 +33°C° 0 mm 5 m/s 753 mmHg 45%
    11:00 +33°C° 0 mm 5 m/s 752 mmHg 44%
    12:00 +34°C° 0 mm 6 m/s 752 mmHg 42%
    13:00 +35°C° 0 mm 6 m/s 752 mmHg 41%
    14:00 +34°C° 0 mm 7 m/s 751 mmHg 45%
    15:00 +33°C° 0 mm 8 m/s 749 mmHg 49%
    16:00 +32°C° 0 mm 8 m/s 748 mmHg 53%
    17:00 +29°C° 0 mm 8 m/s 748 mmHg 59%
    18:00 +28°C° 0 mm 8 m/s 748 mmHg 65%
    19:00 +26°C° 0 mm 9 m/s 748 mmHg 71%
    20:00 +26°C° 0.1 mm 8 m/s 749 mmHg 74%
    21:00 +24°C° 0.1 mm 7 m/s 750 mmHg 76%
    22:00 +24°C° 0.1 mm 6 m/s 751 mmHg 78%
    23:00 +23°C° 0.4 mm 5 m/s 751 mmHg 82%

    Demain, 14 Décembre, Vendredi

    Heure Température Précipitation Vent Pression Humidité
    00:00 +23°C° 0.4 mm 4 m/s 750 mmHg 87%
    01:00 +22°C° 0.4 mm 4 m/s 750 mmHg 91%
    02:00 +22°C° 0.9 mm 4 m/s 750 mmHg 91%
    03:00 +22°C° 0.9 mm 3 m/s 749 mmHg 91%
    04:00 +22°C° 0.9 mm 3 m/s 749 mmHg 92%
    05:00 +22°C° 2.7 mm 4 m/s 749 mmHg 92%
    06:00 +22°C° 2.7 mm 5 m/s 749 mmHg 92%
    07:00 +23°C° 2.7 mm 5 m/s 749 mmHg 92%
    08:00 +24°C° 2.2 mm 7 m/s 749 mmHg 89%
    09:00 +26°C° 2.2 mm 8 m/s 749 mmHg 86%
    10:00 +27°C° 2.2 mm 9 m/s 749 mmHg 83%
    11:00 +29°C° 0 mm 9 m/s 749 mmHg 73%
    12:00 +32°C° 0 mm 8 m/s 748 mmHg 64%
    13:00 +34°C° 0 mm 7 m/s 748 mmHg 54%
    14:00 +34°C° 0 mm 7 m/s 748 mmHg 55%
    15:00 +34°C° 0 mm 7 m/s 748 mmHg 56%
    16:00 +34°C° 0 mm 7 m/s 747 mmHg 57%
    17:00 +32°C° 0.3 mm 6 m/s 748 mmHg 65%
    18:00 +29°C° 0.3 mm 6 m/s 749 mmHg 73%
    19:00 +28°C° 0.3 mm 6 m/s 749 mmHg 81%
    20:00 +27°C° 0 mm 6 m/s 750 mmHg 84%
    21:00 +27°C° 0 mm 6 m/s 750 mmHg 87%
    22:00 +26°C° 0 mm 6 m/s 750 mmHg 91%
    23:00 +26°C° 2.3 mm 5 m/s 750 mmHg 91%

    Après-demain, 15 Décembre, Samedi

    Heure Température Précipitation Vent Pression Humidité
    00:00 +26°C° 2.3 mm 5 m/s 750 mmHg 92%
    01:00 +26°C° 2.3 mm 5 m/s 750 mmHg 93%
    02:00 +25°C° 2.7 mm 5 m/s 750 mmHg 93%
    03:00 +25°C° 2.7 mm 4 m/s 750 mmHg 94%
    04:00 +25°C° 2.7 mm 4 m/s 750 mmHg 94%
    05:00 +26°C° 0.5 mm 4 m/s 750 mmHg 92%
    06:00 +26°C° 0.5 mm 5 m/s 751 mmHg 90%
    07:00 +27°C° 0.5 mm 5 m/s 751 mmHg 88%
    08:00 +28°C° 0.4 mm 6 m/s 752 mmHg 82%
    09:00 +29°C° 0.4 mm 6 m/s 752 mmHg 76%
    10:00 +30°C° 0.4 mm 7 m/s 752 mmHg 70%
    11:00 +30°C° 0.8 mm 7 m/s 752 mmHg 71%
    12:00 +29°C° 0.8 mm 7 m/s 752 mmHg 71%
    13:00 +29°C° 0.8 mm 7 m/s 752 mmHg 72%
    14:00 +29°C° 0.3 mm 7 m/s 752 mmHg 75%
    15:00 +28°C° 0.3 mm 7 m/s 751 mmHg 78%
    16:00 +27°C° 0.3 mm 7 m/s 751 mmHg 82%
    17:00 +27°C° 0.1 mm 6 m/s 752 mmHg 84%
    18:00 +26°C° 0.1 mm 6 m/s 752 mmHg 87%
    19:00 +26°C° 0.1 mm 6 m/s 753 mmHg 89%
    20:00 +24°C° 0.1 mm 6 m/s 753 mmHg 90%
    21:00 +24°C° 0.1 mm 6 m/s 754 mmHg 90%
    22:00 +25°C° 0.1 mm 5 m/s 754 mmHg 91%
    23:00 +25°C° 0.1 mm 5 m/s 754 mmHg 91%

    16 Décembre, Dimanche

    Heure Température Précipitation Vent Pression Humidité
    00:00 +25°C° 0.1 mm 5 m/s 753 mmHg 92%
    01:00 +25°C° 0.1 mm 5 m/s 753 mmHg 93%
    02:00 +23°C° 0.1 mm 4 m/s 753 mmHg 93%
    03:00 +23°C° 0.1 mm 4 m/s 753 mmHg 93%
    04:00 +23°C° 0.1 mm 4 m/s 753 mmHg 94%
    05:00 +25°C° 0.1 mm 4 m/s 753 mmHg 92%
    06:00 +25°C° 0.1 mm 4 m/s 754 mmHg 89%
    07:00 +26°C° 0.1 mm 4 m/s 754 mmHg 87%
    08:00 +26°C° 0.1 mm 4 m/s 754 mmHg 83%
    09:00 +27°C° 0.1 mm 4 m/s 754 mmHg 79%
    10:00 +28°C° 0.1 mm 5 m/s 754 mmHg 75%
    11:00 +28°C° 0.3 mm 5 m/s 754 mmHg 75%
    12:00 +28°C° 0.3 mm 6 m/s 753 mmHg 74%
    13:00 +28°C° 0.3 mm 6 m/s 753 mmHg 74%
    14:00 +28°C° 0.2 mm 6 m/s 752 mmHg 78%
    15:00 +27°C° 0.2 mm 6 m/s 752 mmHg 82%
    16:00 +26°C° 0.2 mm 6 m/s 752 mmHg 85%
    17:00 +26°C° 0.2 mm 6 m/s 752 mmHg 87%
    18:00 +24°C° 0.2 mm 6 m/s 752 mmHg 89%
    19:00 +24°C° 0.2 mm 6 m/s 753 mmHg 91%
    20:00 +24°C° 0.2 mm 6 m/s 753 mmHg 92%
    21:00 +24°C° 0.2 mm 6 m/s 753 mmHg 93%
    22:00 +23°C° 0.2 mm 6 m/s 753 mmHg 93%
    23:00 +23°C° 0.2 mm 6 m/s 753 mmHg 94%

    17 Décembre, Lundi

    Heure Température Précipitation Vent Pression Humidité
    00:00 +23°C° 0.2 mm 6 m/s 752 mmHg 94%
    01:00 +23°C° 0.2 mm 5 m/s 752 mmHg 95%
    02:00 +23°C° 0.3 mm 5 m/s 752 mmHg 95%
    03:00 +23°C° 0.3 mm 4 m/s 752 mmHg 95%
    04:00 +23°C° 0.3 mm 4 m/s 751 mmHg 96%
    05:00 +25°C° 0.5 mm 4 m/s 752 mmHg 95%
    06:00 +25°C° 0.5 mm 4 m/s 752 mmHg 93%
    07:00 +25°C° 0.5 mm 4 m/s 752 mmHg 92%
    08:00 +26°C° 0.2 mm 4 m/s 752 mmHg 88%
    09:00 +27°C° 0.2 mm 4 m/s 752 mmHg 83%
    10:00 +28°C° 0.2 mm 4 m/s 752 mmHg 79%
    11:00 +29°C° 0.6 mm 4 m/s 752 mmHg 77%
    12:00 +29°C° 0.6 mm 4 m/s 751 mmHg 76%
    13:00 +30°C° 0.6 mm 4 m/s 751 mmHg 74%
    14:00 +30°C° 0.5 mm 3 m/s 750 mmHg 75%
    15:00 +30°C° 0.5 mm 3 m/s 750 mmHg 76%
    16:00 +29°C° 0.5 mm 3 m/s 750 mmHg 77%
    17:00 +28°C° 0.1 mm 3 m/s 751 mmHg 81%
    18:00 +27°C° 0.1 mm 3 m/s 751 mmHg 85%
    19:00 +26°C° 0.1 mm 2 m/s 752 mmHg 89%
    20:00 +26°C° 0 mm 3 m/s 752 mmHg 91%
    21:00 +25°C° 0 mm 3 m/s 752 mmHg 93%
    22:00 +25°C° 0 mm 3 m/s 753 mmHg 95%
    23:00 +25°C° 0.1 mm 3 m/s 752 mmHg 95%

    18 Décembre, Mardi

    Heure Température Précipitation Vent Pression Humidité
    00:00 +24°C° 0.1 mm 3 m/s 752 mmHg 95%
    01:00 +24°C° 0.1 mm 3 m/s 752 mmHg 96%
    02:00 +24°C° 0.1 mm 3 m/s 752 mmHg 96%
    03:00 +24°C° 0.1 mm 2 m/s 752 mmHg 96%
    04:00 +24°C° 0.1 mm 2 m/s 752 mmHg 96%
    05:00 +25°C° 0 mm 2 m/s 752 mmHg 92%
    06:00 +26°C° 0 mm 3 m/s 753 mmHg 89%
    07:00 +27°C° 0 mm 3 m/s 753 mmHg 85%
    08:00 +29°C° 0 mm 3 m/s 753 mmHg 77%
    09:00 +30°C° 0 mm 3 m/s 753 mmHg 69%
    10:00 +33°C° 0 mm 3 m/s 753 mmHg 61%
    11:00 +33°C° 0.1 mm 4 m/s 753 mmHg 60%
    12:00 +34°C° 0.1 mm 4 m/s 753 mmHg 59%
    13:00 +34°C° 0.1 mm 4 m/s 752 mmHg 58%
    14:00 +34°C° 0 mm 4 m/s 752 mmHg 59%
    15:00 +33°C° 0 mm 5 m/s 752 mmHg 60%
    16:00 +33°C° 0 mm 5 m/s 752 mmHg 61%
    17:00 +30°C° 0 mm 4 m/s 753 mmHg 69%
    18:00 +29°C° 0 mm 4 m/s 753 mmHg 76%
    19:00 +27°C° 0 mm 4 m/s 754 mmHg 84%
    20:00 +26°C° 0 mm 4 m/s 754 mmHg 88%
    21:00 +26°C° 0 mm 4 m/s 755 mmHg 91%
    22:00 +25°C° 0 mm 4 m/s 755 mmHg 94%
    23:00 +25°C° 0.1 mm 4 m/s 755 mmHg 94%
    Voir plus